| time (UTC) | temp F | wind direction | speed MPH | gust MPH | rain 1hr in | rain 24hr in | rain mn in | humidity % | barometer mb |
| 20260506044540 | 63 | 171 | 1.0 | 4.0 | 0.00 | 0.00 | 0.00 | 63 | 1013.9 |
| 20260506043039 | 64 | 201 | 1.0 | 4.0 | 0.00 | 0.00 | 0.00 | 62 | 1013.9 |
| 20260506041535 | 64 | 0 | 0.0 | 4.0 | 0.00 | 0.00 | 0.00 | 61 | 1013.7 |
| 20260506040053 | 65 | 201 | 2.0 | 6.0 | 0.00 | 0.00 | 0.00 | 60 | 1013.9 |
| 20260506034545 | 65 | 181 | 3.0 | 7.0 | 0.00 | 0.00 | 0.00 | 59 | 1013.8 |
| 20260506033042 | 65 | 167 | 2.0 | 7.0 | 0.00 | 0.00 | 0.00 | 59 | 1014.0 |
| 20260506031542 | 65 | 166 | 1.0 | 5.0 | 0.00 | 0.00 | 0.00 | 59 | 1014.1 |
| 20260506030035 | 65 | 196 | 2.0 | 8.0 | 0.00 | 0.00 | 0.00 | 59 | 1014.0 |
| 20260506024544 | 65 | 207 | 0.0 | 7.0 | 0.00 | 0.00 | 0.00 | 59 | 1014.0 |
| 20260506023052 | 65 | 213 | 0.0 | 5.0 | 0.00 | 0.00 | 0.00 | 58 | 1014.0 |
| 20260506021536 | 65 | 190 | 0.0 | 4.0 | 0.00 | 0.00 | 0.00 | 58 | 1014.0 |
| 20260506020106 | 66 | 229 | 0.0 | 2.0 | 0.00 | 0.00 | 0.00 | 57 | 1014.1 |
| 20260506014544 | 66 | 0 | 0.0 | 0.0 | 0.00 | 0.00 | 0.00 | 56 | 1014.0 |
| 20260506013044 | 67 | 0 | 0.0 | 0.0 | 0.00 | 0.00 | 0.00 | 55 | 1014.1 |
| 20260506011541 | 68 | 0 | 0.0 | 0.0 | 0.00 | 0.00 | 0.00 | 54 | 1014.0 |
| 20260506010035 | 69 | 0 | 0.0 | 0.0 | 0.00 | 0.00 | 0.00 | 52 | 1013.9 |
| 20260506004541 | 69 | 0 | 0.0 | 0.0 | 0.00 | 0.00 | 0.00 | 52 | 1013.9 |
| 20260506003046 | 70 | 0 | 0.0 | 3.0 | 0.00 | 0.00 | 0.00 | 49 | 1013.9 |
| 20260506001547 | 71 | 215 | 0.0 | 3.0 | 0.00 | 0.00 | 0.00 | 48 | 1013.7 |
| 20260506000054 | 72 | 192 | 1.0 | 5.0 | 0.00 | 0.00 | 0.00 | 46 | 1013.6 |
| 20260505234540 | 73 | 196 | 2.0 | 6.0 | 0.00 | 0.00 | 0.00 | 45 | 1013.7 |
| 20260505233049 | 74 | 196 | 3.0 | 9.0 | 0.00 | 0.00 | 0.00 | 44 | 1013.7 |
| 20260505231548 | 74 | 186 | 2.0 | 11.0 | 0.00 | 0.00 | 0.00 | 43 | 1013.7 |
| 20260505230046 | 74 | 225 | 4.0 | 11.0 | 0.00 | 0.00 | 0.00 | 42 | 1013.5 |
| 20260505224544 | 74 | 171 | 4.0 | 12.0 | 0.00 | 0.00 | 0.00 | 42 | 1013.5 |
| 20260505223045 | 75 | 213 | 4.0 | 13.0 | 0.00 | 0.00 | 0.00 | 41 | 1013.5 |
| 20260505221550 | 76 | 216 | 3.0 | 13.0 | 0.00 | 0.00 | 0.00 | 40 | 1013.7 |
| 20260505220044 | 76 | 234 | 4.0 | 16.0 | 0.00 | 0.00 | 0.00 | 40 | 1013.6 |
| 20260505214554 | 76 | 173 | 6.0 | 13.0 | 0.00 | 0.00 | 0.00 | 38 | 1013.6 |
| 20260505213045 | 76 | 188 | 4.0 | 18.0 | 0.00 | 0.00 | 0.00 | 38 | 1013.6 |
| 20260505211608 | 76 | 175 | 7.0 | 18.0 | 0.00 | 0.00 | 0.00 | 37 | 1013.7 |
| 20260505210044 | 76 | 257 | 6.0 | 18.0 | 0.00 | 0.00 | 0.00 | 36 | 1013.8 |
| 20260505204554 | 76 | 261 | 4.0 | 14.0 | 0.00 | 0.00 | 0.00 | 38 | 1013.9 |
| 20260505203047 | 77 | 163 | 5.0 | 14.0 | 0.00 | 0.00 | 0.00 | 35 | 1013.7 |
| 20260505201548 | 77 | 225 | 5.0 | 12.0 | 0.00 | 0.00 | 0.00 | 38 | 1013.9 |
| 20260505200045 | 76 | 186 | 8.0 | 20.0 | 0.00 | 0.00 | 0.00 | 39 | 1014.3 |
| 20260505194546 | 76 | 234 | 8.0 | 20.0 | 0.00 | 0.00 | 0.00 | 37 | 1014.5 |
| 20260505193044 | 77 | 191 | 5.0 | 19.0 | 0.00 | 0.00 | 0.00 | 39 | 1014.6 |
| 20260505191544 | 77 | 161 | 4.0 | 17.0 | 0.00 | 0.00 | 0.00 | 39 | 1014.9 |
| 20260505190041 | 77 | 162 | 4.0 | 15.0 | 0.00 | 0.00 | 0.00 | 39 | 1014.9 |
| 20260505184546 | 77 | 142 | 7.0 | 21.0 | 0.00 | 0.00 | 0.00 | 37 | 1015.3 |
| 20260505183045 | 77 | 225 | 6.0 | 21.0 | 0.00 | 0.00 | 0.00 | 38 | 1015.4 |
| 20260505181605 | 76 | 176 | 7.0 | 17.0 | 0.00 | 0.00 | 0.00 | 39 | 1015.6 |
| 20260505180059 | 75 | 140 | 6.0 | 17.0 | 0.00 | 0.00 | 0.00 | 40 | 1015.9 |
| 20260505174546 | 75 | 252 | 5.0 | 15.0 | 0.00 | 0.00 | 0.00 | 41 | 1016.1 |
| 20260505173046 | 75 | 186 | 8.0 | 24.0 | 0.00 | 0.00 | 0.00 | 40 | 1016.1 |
| 20260505171547 | 74 | 185 | 4.0 | 12.0 | 0.00 | 0.00 | 0.00 | 42 | 1016.1 |
| 20260505170040 | 75 | 190 | 5.0 | 15.0 | 0.00 | 0.00 | 0.00 | 43 | 1016.1 |
| 20260505164548 | 74 | 167 | 7.0 | 14.0 | 0.00 | 0.00 | 0.00 | 45 | 1016.2 |
| 20260505163048 | 74 | 149 | 4.0 | 12.0 | 0.00 | 0.00 | 0.00 | 46 | 1016.4 |
| 20260505161548 | 73 | 213 | 7.0 | 16.0 | 0.00 | 0.00 | 0.00 | 47 | 1016.4 |
| 20260505153044 | 71 | 236 | 7.0 | 17.0 | 0.00 | 0.00 | 0.00 | 49 | 1016.9 |
| 20260505151538 | 70 | 162 | 9.0 | 15.0 | 0.00 | 0.00 | 0.00 | 49 | 1016.9 |
| 20260505124547 | 58 | 224 | 1.0 | 5.0 | 0.00 | 0.00 | 0.00 | 69 | 1016.7 |
| 20260505123052 | 57 | 235 | 2.0 | 6.0 | 0.00 | 0.00 | 0.00 | 71 | 1016.5 |
| 20260505121545 | 56 | 192 | 1.0 | 4.0 | 0.00 | 0.00 | 0.00 | 74 | 1016.5 |
| 20260505120104 | 54 | 206 | 1.0 | 3.0 | 0.00 | 0.00 | 0.00 | 75 | 1016.2 |
| 20260505114541 | 53 | 0 | 0.0 | 2.0 | 0.00 | 0.00 | 0.00 | 77 | 1016.2 |
| 20260505113039 | 52 | 0 | 0.0 | 2.0 | 0.00 | 0.00 | 0.00 | 77 | 1016.1 |
| 20260505111546 | 52 | 0 | 0.0 | 4.0 | 0.00 | 0.00 | 0.00 | 76 | 1015.9 |
| 20260505110106 | 53 | 232 | 1.0 | 5.0 | 0.00 | 0.00 | 0.00 | 75 | 1015.8 |
| 20260505101538 | 53 | 165 | 2.0 | 10.0 | 0.00 | 0.00 | 0.00 | 73 | 1015.7 |
| 20260505100036 | 54 | 165 | 2.0 | 7.0 | 0.00 | 0.00 | 0.00 | 72 | 1015.6 |
| 20260505094545 | 54 | 171 | 1.0 | 6.0 | 0.00 | 0.00 | 0.00 | 71 | 1015.6 |
| 20260505093127 | 54 | 153 | 1.0 | 6.0 | 0.00 | 0.00 | 0.00 | 71 | 1015.6 |
| 20260505091551 | 54 | 162 | 3.0 | 10.0 | 0.00 | 0.00 | 0.00 | 71 | 1015.5 |
| 20260505090040 | 54 | 182 | 1.0 | 7.0 | 0.00 | 0.00 | 0.00 | 71 | 1015.3 |
| 20260505084539 | 54 | 194 | 2.0 | 7.0 | 0.00 | 0.00 | 0.00 | 71 | 1015.2 |
| 20260505083058 | 53 | 192 | 2.0 | 6.0 | 0.00 | 0.00 | 0.00 | 72 | 1015.0 |
| 20260505081544 | 53 | 0 | 0.0 | 2.0 | 0.00 | 0.00 | 0.00 | 72 | 1015.0 |
| 20260505080045 | 53 | 202 | 1.0 | 3.0 | 0.00 | 0.00 | 0.00 | 71 | 1014.7 |
| 20260505074544 | 53 | 202 | 1.0 | 3.0 | 0.00 | 0.00 | 0.00 | 71 | 1014.7 |
| 20260505073046 | 54 | 0 | 0.0 | 2.0 | 0.00 | 0.00 | 0.00 | 70 | 1014.5 |
| 20260505071540 | 55 | 202 | 0.0 | 2.0 | 0.00 | 0.00 | 0.00 | 68 | 1014.4 |
| 20260505070050 | 56 | 0 | 0.0 | 5.0 | 0.00 | 0.00 | 0.00 | 66 | 1014.5 |
| 20260505064610 | 56 | 200 | 2.0 | 5.0 | 0.00 | 0.00 | 0.00 | 65 | 1014.6 |
| 20260505063043 | 57 | 200 | 1.0 | 3.0 | 0.00 | 0.00 | 0.00 | 64 | 1014.9 |
| 20260505061540 | 57 | 182 | 1.0 | 6.0 | 0.00 | 0.00 | 0.00 | 63 | 1015.0 |
| 20260505060039 | 57 | 198 | 2.0 | 7.0 | 0.00 | 0.00 | 0.00 | 63 | 1015.0 |
| 20260505054550 | 58 | 0 | 2.0 | 5.0 | 0.00 | 0.00 | 0.00 | 62 | 1015.0 |
| 20260505053045 | 58 | 179 | 2.0 | 9.0 | 0.00 | 0.00 | 0.00 | 62 | 1014.9 |
| 20260505051543 | 57 | 219 | 1.0 | 5.0 | 0.00 | 0.00 | 0.00 | 62 | 1015.0 |